Regional Weather Roundup
Issued by NWS Cleveland, OH

Home | Current Version | Previous Version | Graphics & Text | Print | Product List | Glossary On
Versions: 1 2 3 4 5 6 7 8 9 10 11 12 13 14 15 16 17 18 19 20 21 22 23 24 25 26 27 28 29 30 31 32 33 34 35 36 37 38 39 40 41 42 43 44 45 46 47 48 49 50
292
ASUS41 KCLE 221702
RWRCLE
OHIO REGIONAL WEATHER ROUNDUP
NATIONAL WEATHER SERVICE CLEVELAND, OH
100 PM EDT FRI SEP 22 2017

NOTE: "FAIR" INDICATES FEW OR NO CLOUDS BELOW 12,000 FEET WITH NO
SIGNIFICANT WEATHER AND/OR OBSTRUCTIONS TO VISIBILITY.

OHZ001>008-015>018-024>027-034-035-043-044-221800-
   NORTHWEST OHIO

CITY           SKY/WX    TMP DP  RH WIND       PRES   REMARKS
DEFIANCE       SUNNY     87  70  56 CALM      30.11F HX  92
FINDLAY        SUNNY     89  68  49 CALM      30.10F HX  93
TOLEDO EXPRESS SUNNY     88  72  58 NE5       30.11S HX  94
TOLEDO EXEC    SUNNY     87  71  58 NE3       30.12S HX  93
LIMA           SUNNY     85  69  58 N5        30.11F
$$

OHZ009>014-019>023-028>033-038-089-221800-
   NORTHEAST OHIO

CITY           SKY/WX    TMP DP  RH WIND       PRES   REMARKS
CLE-HOPKINS    MOSUNNY   88  62  41 CALM      30.13F
CLE-LAKEFRONT  SUNNY     78  66  66 NE8       30.11F
CUY CO. ARPT   MOSUNNY   88  64  45 NE7       30.14F
LORAIN-ELYRIA  SUNNY     84  59  42 CALM      30.13S
ASHTABULA      SUNNY     84  59  42 VRB5      30.14F
AKRON-CANTON   PTSUNNY   85  61  44 SE5       30.14F
WOOSTER        SUNNY     85  65  51 VRB7      30.14F
MANSFIELD      MOSUNNY   86  66  51 CALM      30.14F
YOUNGSTOWN     CLOUDY    81  62  52 NE6       30.15F
$$

OHZ042-051>053-060>062-070>072-077>081-221800-
  SOUTHWEST OHIO

CITY           SKY/WX    TMP DP  RH WIND       PRES   REMARKS
CINC-COVINGTON MOSUNNY   87  69  54 VRB3      30.11F HX  91
CINC-LUNKEN    SUNNY     87  68  52 CALM      30.10F HX  90
HAMILTON       SUNNY     87  69  54 CALM      30.11F HX  91
DAYTON         MOSUNNY   85  68  56 S3        30.12F
WRIGHT-PAT AFB NOT AVBL
DAYTON GENERAL SUNNY     85  67  54 CALM      30.11F
WILMINGTON     MOSUNNY   85  69  58 CALM      30.12F
$$

OHZ036-037-039>041-045>050-054>059-063>069-073>076-082>088-221800-
  CENTRAL AND SOUTHEAST OHIO

CITY           SKY/WX    TMP DP  RH WIND       PRES   REMARKS
COLUMBUS       MOSUNNY   86  66  51 CALM      30.11F
OSU AIRPORT    SUNNY     84  69  60 E5        30.12F
BOLTON FIELD   SUNNY     84  66  54 S5        30.13F
RICKENBACK AFB NOT AVBL
NEWARK         MOSUNNY   84  65  52 CALM      30.12F
MARION         PTSUNNY   86  64  47 NE7       30.12F
LANCASTER      SUNNY     84  66  54 CALM      30.12F
ZANESVILLE     MOSUNNY   85  64  49 N3        30.12F
NEW PHILLY     NOT AVBL
$$




USA.gov is the U.S. government's official web portal to all federal, state and local government web resources and services.